Time,TemperatureF,DewpointF,PressureIn,WindDirection,WindDirectionDegrees,WindSpeedMPH,WindSpeedGustMPH,Humidity,HourlyPrecipIn,Conditions,Clouds,dailyrainin,SoftwareType,DateUTC
2013-09-21 00:24:00,63.0,56.0,29.83,South,176,0.0,-999.0,79,-99.99,,,-99.99,,2013-09-21 04:24:00,
2013-09-21 00:54:00,62.0,56.0,29.83,South,176,0.0,-999.0,81,-99.99,,,-99.99,,2013-09-21 04:54:00,
2013-09-21 01:23:00,61.0,55.0,29.82,South,176,0.0,-999.0,82,-99.99,,,-99.99,,2013-09-21 05:23:00,
2013-09-21 01:53:00,61.0,56.0,29.82,South,176,0.0,-999.0,83,-99.99,,,-99.99,,2013-09-21 05:53:00,
2013-09-21 02:12:00,61.0,56.0,29.82,South,176,0.0,-999.0,83,-99.99,,,-99.99,,2013-09-21 06:12:00,
2013-09-21 02:22:00,61.0,55.0,29.82,South,176,0.0,-999.0,82,-99.99,,,-99.99,,2013-09-21 06:22:00,
2013-09-21 02:42:00,61.0,56.0,29.82,South,176,0.0,-999.0,83,-99.99,,,-99.99,,2013-09-21 06:42:00,
2013-09-21 02:53:00,61.0,56.0,29.82,South,176,0.0,-999.0,83,-99.99,,,-99.99,,2013-09-21 06:53:00,
2013-09-21 03:21:00,60.0,55.0,29.81,South,176,0.0,-999.0,85,-99.99,,,-99.99,,2013-09-21 07:21:00,
2013-09-21 03:52:00,60.0,56.0,29.80,South,175,0.0,-999.0,86,-99.99,,,-99.99,,2013-09-21 07:52:00,
2013-09-21 04:22:00,60.0,56.0,29.80,South,175,0.0,-999.0,87,-99.99,,,-99.99,,2013-09-21 08:22:00,
2013-09-21 04:52:00,60.0,56.0,29.80,South,175,0.0,-999.0,88,-99.99,,,-99.99,,2013-09-21 08:52:00,
2013-09-21 05:22:00,59.0,56.0,29.79,South,175,0.0,-999.0,90,-99.99,,,-99.99,,2013-09-21 09:22:00,
2013-09-21 05:54:00,59.0,56.0,29.78,South,175,0.0,-999.0,91,-99.99,,,-99.99,,2013-09-21 09:54:00,
2013-09-21 06:23:00,59.0,57.0,29.78,South,174,0.0,-999.0,92,-99.99,,,-99.99,,2013-09-21 10:23:00,
2013-09-21 06:52:00,59.0,57.0,29.78,South,174,0.0,-999.0,92,-99.99,,,-99.99,,2013-09-21 10:52:00,
2013-09-21 07:23:00,59.0,56.0,29.79,South,174,0.0,-999.0,91,-99.99,,,-99.99,,2013-09-21 11:23:00,
2013-09-21 07:52:00,60.0,57.0,29.80,South,174,0.0,-999.0,90,-99.99,,,-99.99,,2013-09-21 11:52:00,
2013-09-21 08:21:00,60.0,57.0,29.80,South,174,0.0,-999.0,90,-99.99,,,-99.99,,2013-09-21 12:21:00,
2013-09-21 08:52:00,60.0,56.0,29.82,South,174,0.0,-999.0,87,-99.99,,,-99.99,,2013-09-21 12:52:00,
2013-09-21 09:21:00,60.0,56.0,29.83,South,172,0.0,-999.0,88,-99.99,,,-99.99,,2013-09-21 13:21:00,
2013-09-21 09:42:00,59.0,55.0,29.83,South,172,0.0,-999.0,88,-99.99,,,-99.99,,2013-09-21 13:42:00,
2013-09-21 09:52:00,60.0,56.0,29.83,ENE,66,0.0,-999.0,88,-99.99,,,-99.99,,2013-09-21 13:52:00,
2013-09-21 10:22:00,60.0,56.0,29.85,ENE,61,0.0,-999.0,88,-99.99,,,-99.99,,2013-09-21 14:22:00,
2013-09-21 10:52:00,60.0,56.0,29.85,NNE,31,0.0,-999.0,86,-99.99,,,-99.99,,2013-09-21 14:52:00,
2013-09-21 11:22:00,61.0,54.0,29.85,West,271,0.0,-999.0,77,-99.99,,,-99.99,,2013-09-21 15:22:00,
2013-09-21 11:55:00,63.0,53.0,29.85,NNE,20,0.0,-999.0,69,-99.99,,,-99.99,,2013-09-21 15:55:00,
2013-09-21 12:24:00,63.0,50.0,29.87,WNW,292,0.0,-999.0,63,-99.99,,,-99.99,,2013-09-21 16:24:00,
2013-09-21 12:54:00,63.0,50.0,29.87,SSE,154,0.0,-999.0,62,-99.99,,,-99.99,,2013-09-21 16:54:00,
2013-09-21 13:23:00,63.0,48.0,29.87,WNW,284,0.0,-999.0,59,-99.99,,,-99.99,,2013-09-21 17:23:00,
2013-09-21 13:52:00,64.0,50.0,29.87,WSW,256,0.0,-999.0,61,-99.99,,,-99.99,,2013-09-21 17:52:00,
2013-09-21 14:12:00,63.0,49.0,29.87,NNE,24,0.0,-999.0,61,-99.99,,,-99.99,,2013-09-21 18:12:00,
2013-09-21 14:22:00,64.0,50.0,29.87,SW,217,0.0,-999.0,60,-99.99,,,-99.99,,2013-09-21 18:22:00,
2013-09-21 14:52:00,64.0,49.0,29.87,NW,319,0.0,-999.0,58,-99.99,,,-99.99,,2013-09-21 18:52:00,
2013-09-21 15:11:00,63.0,49.0,29.87,SW,219,0.0,-999.0,60,-99.99,,,-99.99,,2013-09-21 19:11:00,
2013-09-21 15:21:00,63.0,49.0,29.88,WNW,292,0.0,-999.0,61,-99.99,,,-99.99,,2013-09-21 19:21:00,
2013-09-21 15:52:00,62.0,50.0,29.88,South,186,0.0,-999.0,64,-99.99,,,-99.99,,2013-09-21 19:52:00,
2013-09-21 16:12:00,62.0,49.0,29.88,SSW,206,0.0,-999.0,62,-99.99,,,-99.99,,2013-09-21 20:12:00,
2013-09-21 16:22:00,61.0,48.0,29.89,WNW,282,0.0,-999.0,63,-99.99,,,-99.99,,2013-09-21 20:22:00,
2013-09-21 16:52:00,60.0,49.0,29.89,WNW,284,0.0,-999.0,66,-99.99,,,-99.99,,2013-09-21 20:52:00,
2013-09-21 17:22:00,58.0,50.0,29.90,SW,229,0.0,-999.0,74,-99.99,,,-99.99,,2013-09-21 21:22:00,
2013-09-21 17:44:00,58.0,50.0,29.90,SW,227,0.0,-999.0,76,-99.99,,,-99.99,,2013-09-21 21:44:00,
2013-09-21 17:54:00,57.0,50.0,29.90,SW,223,0.0,-999.0,76,-99.99,,,-99.99,,2013-09-21 21:54:00,
2013-09-21 18:23:00,59.0,49.0,29.90,SW,222,0.0,-999.0,70,-99.99,,,-99.99,,2013-09-21 22:23:00,
2013-09-21 18:53:00,59.0,48.0,29.91,SW,220,0.0,-999.0,68,-99.99,,,-99.99,,2013-09-21 22:53:00,
2013-09-21 19:23:00,59.0,49.0,29.91,SW,236,0.0,-999.0,70,-99.99,,,-99.99,,2013-09-21 23:23:00,
2013-09-21 19:53:00,58.0,49.0,29.91,SW,236,0.0,-999.0,72,-99.99,,,-99.99,,2013-09-21 23:53:00,
2013-09-21 20:12:00,58.0,49.0,29.91,SW,236,0.0,-999.0,73,-99.99,,,-99.99,,2013-09-22 00:12:00,
2013-09-21 20:22:00,58.0,49.0,29.91,WSW,237,0.0,-999.0,73,-99.99,,,-99.99,,2013-09-22 00:22:00,
2013-09-21 20:43:00,58.0,49.0,29.91,WSW,237,0.0,-999.0,73,-99.99,,,-99.99,,2013-09-22 00:43:00,
2013-09-21 20:52:00,58.0,50.0,29.91,WSW,237,0.0,-999.0,74,-99.99,,,-99.99,,2013-09-22 00:52:00,
2013-09-21 21:12:00,58.0,50.0,29.92,WSW,239,0.0,-999.0,74,-99.99,,,-99.99,,2013-09-22 01:12:00,
2013-09-21 21:21:00,58.0,49.0,29.92,WSW,239,0.0,-999.0,73,-99.99,,,-99.99,,2013-09-22 01:21:00,
2013-09-21 21:42:00,58.0,50.0,29.92,WSW,239,0.0,-999.0,74,-99.99,,,-99.99,,2013-09-22 01:42:00,
2013-09-21 21:52:00,58.0,50.0,29.92,WSW,239,0.0,-999.0,74,-99.99,,,-99.99,,2013-09-22 01:52:00,
2013-09-21 22:22:00,58.0,50.0,29.93,WSW,240,0.0,-999.0,74,-99.99,,,-99.99,,2013-09-22 02:22:00,
2013-09-21 22:42:00,58.0,50.0,29.93,WSW,240,0.0,-999.0,75,-99.99,,,-99.99,,2013-09-22 02:42:00,
2013-09-21 22:52:00,58.0,50.0,29.93,WSW,240,0.0,-999.0,75,-99.99,,,-99.99,,2013-09-22 02:52:00,
2013-09-21 23:22:00,57.0,50.0,29.93,WSW,240,0.0,-999.0,76,-99.99,,,-99.99,,2013-09-22 03:22:00,
2013-09-21 23:54:00,57.0,50.0,29.94,WSW,240,0.0,-999.0,76,-99.99,,,-99.99,,2013-09-22 03:54:00,